Location: Carnetin
(48.9010°N, 2.7059°E)
Time: 17:30:34
(UTC+00:00)

Cosmos 1825 Rocket - Pass Details

Date: 24 October 2021
Orbit: 603 x 631 km, 82.5° (Epoch: 02 December)

Event Time Altitude Azimuth Distance (km) Brightness Sun altitude
Rises 18:06:40 0° 358° (N) 2,878 7.0 -14.5°
Reaches altitude 10° 18:09:08 10° 9° (N) 1,966 6.0 -14.9°
Maximum altitude 18:12:58 30° 71° (ENE) 1,090 4.3 -15.5°
Enters shadow 18:13:47 28° 93° (E) 1,141 4.3 -15.7°
